Temperature
14 14 13 13 13 13 13 12 12 12 12 12 12 12 12 12 12 12 12 12 11 11 11 11 11 11 11 11 11 11 10 10 10 10 11 11 11 11 11 11 11 11 11
14 14 13 13 13 13 13 12 12 12 12 12 12 12 12 12 11 11 11 11 11 11 11 11 11 11 10 10 10 10 10 10 10 10 10 10 11 11 11 11 11 11 11
13 13 13 13 13 13 12 12 12 12 12 12 11 12 11 11 11 11 11 11 11 11 11 11 11 10 10 10 10 10 10 10 10 10 10 10 10 10 10 10 10 10 11
13 13 13 13 13 13 12 12 12 12 12 12 11 11 11 11 11 11 11 11 11 11 10 10 10 10 10 10 10 10 10 10 10 10 10 10 10 10 10 10 10 10 10
13 13 13 13 12 12 12 12 12 12 12 11 11 11 11 11 11 11 11 11 11 11 10 10 10 10 10 10 10 10 10 10 9 9 9 9 10 10 10 10 10 10 10
13 13 13 12 12 12 12 12 12 12 11 11 11 11 11 11 11 11 11 11 11 10 10 10 10 10 10 10 9 9 9 9 9 9 9 9 9 9 9 9 9 9 9
13 13 13 12 12 12 12 12 12 11 11 11 11 11 11 11 11 11 11 10 10 10 10 10 10 10 10 10 9 9 9 9 9 9 9 9 9 9 9 9 9 9 9
13 13 12 12 12 12 12 12 11 11 11 11 11 11 11 11 11 11 11 10 10 10 10 10 10 10 10 9 9 9 9 9 9 9 9 9 9 9 9 9 9 9 9
13 13 12 12 12 12 12 12 11 11 11 11 11 11 11 11 11 11 10 10 10 10 10 10 10 10 10 9 9 9 9 9 9 9 9 9 9 8 8 8 8 8 8
13 12 12 12 12 12 12 12 11 11 11 11 11 11 11 11 11 11 10 10 10 10 10 10 10 9 9 9 9 9 9 9 9 9 9 9 9 8 8 8 8 8 8
13 12 12 12 12 12 12 12 12 11 11 11 11 11 11 11 11 10 10 10 10 10 10 10 9 9 9 9 9 9 8 8 8 8 8 8 8 8 8 8 8 8 8
12 12 12 12 12 12 12 12 12 11 11 11 11 11 11 11 11 10 10 10 10 10 10 9 9 9 9 8 8 8 8 8 8 8 8 8 8 8 8 8 8 8 8
12 12 12 12 12 12 12 12 12 11 11 11 11 11 11 11 10 10 10 10 10 10 9 9 9 9 9 9 8 8 8 8 8 8 8 8 8 8 8 8 8 8 8
12 12 12 12 12 12 12 12 12 11 11 11 11 11 11 10 10 10 10 10 10 9 9 9 9 9 9 8 8 8 8 8 8 8 7 7 7 7 7 7 7 7 8
12 12 12 12 12 12 12 12 12 12 11 11 11 11 11 10 10 10 10 10 9 9 9 9 9 9 8 8 8 8 8 8 7 7 7 7 7 7 7 7 7 7 7
12 12 12 12 12 12 12 12 12 11 11 11 11 11 11 10 10 10 10 10 9 9 9 9 9 8 8 8 8 8 8 7 7 7 7 7 7 7 7 7 7 7 7
12 12 12 12 12 12 12 12 12 11 11 11 11 11 11 10 10 10 10 10 9 9 9 9 8 8 8 8 7 7 7 7 7 7 7 7 6 6 6 6 6 6 6
12 12 12 12 12 12 12 12 11 11 11 11 11 11 11 10 10 10 10 10 9 9 9 8 8 8 8 7 7 7 7 7 6 6 6 6 6 6 6 6 6 6 6
12 12 12 12 12 12 12 12 11 11 11 11 11 11 11 10 10 10 10 9 9 9 8 8 8 8 7 7 7 7 6 6 6 6 6 6 6 6 6 6 6 6 6
12 12 12 12 12 12 12 11 11 11 11 11 11 11 10 10 10 10 10 9 9 8 8 8 8 7 7 7 7 6 6 6 6 6 6 6 6 6 5 5 6 6 6
12 12 12 12 12 12 12 11 11 11 11 11 11 10 10 10 10 10 9 9 9 8 8 8 7 7 7 7 6 6 6 6 6 5 5 5 5 5 5 5 5 5 5
12 12 12 12 12 12 12 11 11 11 11 11 10 10 10 10 10 9 9 9 8 8 8 8 7 7 7 7 6 6 6 6 5 5 5 5 5 5 5 5 5 5 5
12 12 12 12 12 12 11 11 11 11 11 10 10 10 10 10 9 9 9 9 8 8 8 7 7 7 7 6 6 6 6 5 5 5 5 5 5 5 5 5 5 5 4
12 12 12 12 12 12 11 11 11 11 10 10 10 10 10 9 9 9 9 8 8 8 7 7 7 7 6 6 6 6 5 5 5 5 5 5 5 5 5 5 4 4 4
12 12 12 12 12 11 11 11 11 11 10 10 10 10 10 9 9 9 8 8 8 8 7 7 7 6 6 6 6 5 5 5 5 5 5 5 5 4 4 4 4 4 4
12 12 12 12 11 11 11 11 11 10 10 10 10 10 9 9 9 8 8 8 8 7 7 7 7 6 6 6 6 5 5 5 5 5 5 4 4 4 4 4 4 4 3
Wind_Speed
2 2 2 1 2 2 2 3 3 3 3 3 3 3 3 3 3 3 3 3 3 3 3 3 4 3 3 3 3 4 5 5 6 6 4 5 5 6 6 6 7 7 8
2 2 2 1 2 2 2 3 2 3 3 3 3 3 3 2 2 3 3 3 3 3 3 3 4 3 4 4 3 4 5 5 5 7 5 4 5 5 5 6 5 6 7
2 2 2 1 2 2 3 2 2 3 3 3 2 2 2 2 2 3 3 3 3 4 4 4 5 4 5 5 4 4 4 4 5 5 5 3 3 3 4 4 5 4 5
2 2 2 2 2 3 2 2 2 3 3 2 1 1 1 1 2 2 3 3 3 4 4 4 5 5 6 6 5 5 5 5 5 5 5 4 4 3 3 4 4 4 5
1 1 1 2 1 1 1 1 2 2 1 1 0 0 1 1 2 2 2 3 4 4 5 5 5 6 7 6 5 5 4 4 4 4 5 4 4 3 4 3 4 5 5
2 1 1 0 0 0 0 1 1 2 1 1 1 1 2 2 4 3 3 3 4 4 5 6 6 6 7 7 7 7 6 5 5 5 5 6 6 5 4 4 3 3 4
2 1 0 1 1 0 0 2 2 2 2 2 1 1 2 4 5 5 4 3 4 4 5 5 5 5 5 5 6 7 6 7 8 7 7 8 7 6 4 5 5 4 5
1 0 0 1 1 1 2 2 1 1 1 1 1 2 2 5 6 6 6 3 3 4 5 5 5 6 5 5 5 6 6 6 7 6 8 8 7 6 5 5 5 4 5
1 1 1 1 1 1 1 0 0 1 1 1 2 2 3 5 7 7 5 2 3 4 5 4 4 5 6 4 4 5 6 6 5 5 6 7 7 7 5 3 3 3 4
2 3 2 2 2 1 1 1 0 1 1 1 2 3 3 5 7 6 4 2 3 4 4 4 4 4 5 5 3 4 6 6 6 6 5 5 4 4 4 4 4 3 3
2 1 1 1 2 2 1 1 1 0 1 1 2 3 3 4 6 7 5 2 2 3 4 4 4 5 6 6 4 4 6 6 5 5 4 4 3 3 3 3 4 4 4
1 1 1 1 1 1 2 1 0 0 0 2 3 4 4 4 4 6 6 4 3 2 3 4 4 7 7 6 4 5 6 4 3 3 3 3 3 4 4 4 4 5 6
1 1 1 1 1 1 2 1 0 0 0 1 2 3 4 4 5 6 6 5 4 2 3 5 6 7 7 5 6 7 4 2 2 2 3 4 4 4 4 3 3 3 4
0 1 1 0 0 0 1 2 1 1 1 2 2 3 4 4 5 4 4 4 4 3 3 5 6 6 5 5 6 5 3 2 2 2 4 4 4 3 3 2 2 2 2
1 1 1 1 1 1 1 2 3 3 4 4 3 3 3 4 5 5 3 3 3 3 3 3 3 4 5 5 4 4 4 3 3 3 3 4 4 3 3 2 2 2 2
1 1 1 1 1 1 1 1 2 3 4 5 6 4 3 5 6 5 5 4 3 2 1 2 3 4 4 5 5 5 4 4 4 4 4 3 4 4 3 3 2 2 2
2 2 2 1 1 1 1 1 2 4 3 4 4 4 4 5 5 4 3 2 2 2 1 2 3 3 4 4 4 4 4 5 4 4 4 3 3 3 3 3 3 2 2
2 2 2 2 2 2 2 2 2 2 3 3 4 3 3 3 3 3 2 2 2 2 2 3 3 4 4 4 4 4 4 5 4 4 4 4 3 3 3 3 3 3 3
2 2 2 2 2 2 2 2 2 2 3 3 3 4 4 3 2 3 1 1 1 2 2 3 3 3 3 3 3 4 4 4 5 4 4 4 4 3 3 3 2 3 3
3 4 3 2 2 2 2 2 2 2 3 3 3 4 3 2 2 2 1 1 2 2 3 3 3 3 3 3 3 3 4 4 5 4 4 4 4 3 3 3 3 3 3
3 3 3 2 3 3 3 2 2 2 2 3 3 3 2 1 2 2 2 2 2 2 3 3 3 3 3 3 3 3 4 4 4 4 4 4 4 3 3 3 3 3 3
3 3 3 3 3 3 3 2 2 2 3 3 3 3 2 2 2 2 2 2 2 2 2 2 2 2 3 3 3 3 4 4 4 4 4 4 3 3 3 3 3 3 3
3 3 3 3 3 3 3 2 2 2 3 3 3 3 2 2 2 2 2 2 2 2 2 2 2 3 3 3 3 3 3 4 4 4 4 3 3 3 3 3 3 3 3
3 4 4 3 3 3 3 3 3 3 3 3 3 3 3 2 2 2 2 2 2 2 2 2 2 3 4 4 3 3 4 4 4 3 3 3 3 3 3 3 3 3 3
3 4 4 4 4 3 3 3 3 3 3 2 2 3 2 2 2 2 2 2 2 2 3 3 2 3 4 4 4 4 5 5 4 3 2 2 2 2 3 3 2 3 3
4 4 4 4 4 3 3 3 3 3 3 3 2 2 2 1 1 1 1 1 2 2 2 2 3 4 4 4 5 6 5 5 4 3 2 1 1 2 2 2 3 2 2
Wind_Direction
191 193 207 222 205 194 199 220 236 253 246 241 244 253 259 256 249 238 250 248 243 258 260 249 261 258 260 259 246 236 229 223 248 270 266 278 274 281 291 280 269 260 258
205 180 185 223 209 205 223 239 243 258 261 254 254 257 255 254 251 248 259 257 246 259 266 262 267 267 265 262 259 253 246 232 237 266 276 278 270 277 283 285 282 271 263
188 164 162 217 225 225 238 257 255 261 268 263 254 252 254 256 258 255 252 257 256 256 258 257 263 267 273 271 266 263 259 253 240 252 269 270 272 281 291 292 290 280 274
165 161 160 218 231 228 237 252 266 264 253 254 252 246 250 267 268 263 255 265 271 267 265 260 260 257 262 267 267 266 265 262 254 253 263 271 272 278 272 282 295 293 286
156 169 206 217 213 212 263 281 299 295 262 214 172 341 310 296 290 281 270 272 274 279 281 275 267 264 263 258 260 264 262 262 264 262 266 271 274 274 273 267 279 296 290
160 210 230 213 161 142 277 323 17 9 18 73 70 0 332 319 317 306 280 277 278 279 284 287 284 275 276 272 267 263 251 251 258 256 261 266 269 270 268 268 273 285 290
170 198 197 83 87 159 64 65 50 30 35 41 7 344 324 317 317 310 296 276 274 274 277 286 292 290 289 284 285 286 274 258 243 243 255 260 263 260 257 263 259 260 268
156 186 344 96 94 81 75 63 42 53 44 357 338 333 330 322 321 318 315 300 286 284 282 279 279 288 293 288 291 296 291 282 264 252 250 257 261 262 248 245 258 270 278
213 234 237 205 170 120 93 105 76 65 8 334 324 327 330 323 328 326 324 311 307 305 301 293 289 289 298 303 300 301 305 304 294 277 270 271 273 268 253 242 248 258 282
254 244 235 212 187 196 217 201 109 107 303 327 336 334 328 322 326 330 336 329 319 318 322 317 305 304 308 316 301 294 297 299 309 314 307 304 292 280 254 226 228 238 258
272 267 244 213 201 197 181 159 153 113 9 344 332 330 331 322 325 333 342 351 309 317 327 328 332 335 328 321 307 287 280 291 301 303 305 310 314 306 288 256 231 225 237
316 310 277 238 228 188 161 173 118 117 356 330 338 334 332 329 330 330 334 331 317 318 316 322 331 341 339 336 330 312 303 302 307 313 316 316 315 311 301 287 265 243 240
347 310 289 250 207 183 172 187 217 218 246 305 320 321 323 330 335 336 334 334 334 324 314 321 330 338 341 342 339 334 335 337 333 324 310 301 295 293 298 304 301 278 267
269 301 305 242 255 236 193 198 204 229 245 270 291 304 314 324 327 333 337 341 346 342 329 332 335 339 344 336 338 345 350 340 326 305 298 299 304 310 311 312 308 314 310
253 280 291 252 223 239 233 228 223 234 222 226 252 260 283 305 303 307 321 329 331 330 338 350 356 357 358 354 349 344 345 347 338 324 312 314 317 315 311 312 304 306 295
239 255 261 258 244 226 229 297 287 253 267 246 239 237 254 259 284 309 317 319 325 339 30 355 345 345 342 339 340 341 340 338 332 325 325 317 313 312 318 327 318 306 301
221 239 245 247 241 245 234 234 293 314 320 311 290 268 254 275 292 306 313 341 360 65 40 340 330 328 328 330 332 334 333 330 330 329 329 327 324 324 329 332 330 326 325
232 247 238 244 248 249 245 239 244 271 305 315 318 309 301 297 312 327 345 53 21 25 347 324 318 319 321 326 329 330 331 335 336 335 334 336 335 328 328 329 335 335 329
236 256 257 249 252 250 244 245 255 264 276 290 308 318 316 314 328 343 57 57 332 328 327 319 313 313 318 323 326 332 334 334 333 331 332 337 337 334 331 332 332 328 323
245 251 253 253 254 256 261 269 280 279 281 286 295 300 323 4 353 339 350 324 317 315 316 311 309 312 316 319 325 331 335 333 333 332 329 332 334 334 331 332 334 332 327
243 247 244 251 250 254 258 257 260 266 278 285 289 294 282 283 292 296 297 305 308 307 308 309 312 316 319 322 323 327 327 325 325 324 325 327 329 329 330 335 337 336 333
235 241 242 247 255 255 254 250 252 261 273 280 291 303 296 286 295 302 303 309 310 306 303 303 309 313 316 316 316 318 318 318 322 323 323 327 327 324 327 338 345 349 352
230 238 249 252 250 245 247 248 248 258 269 278 290 302 309 302 303 308 311 315 319 323 328 328 319 319 320 319 316 311 309 311 312 313 315 319 324 327 331 337 343 349 356
236 238 243 244 244 251 247 249 250 256 266 277 285 289 295 295 298 305 311 318 325 329 336 339 327 318 325 336 335 327 318 313 309 304 304 302 312 325 335 340 342 349 354
244 241 240 238 240 243 246 246 247 251 259 270 277 284 290 294 300 311 319 321 325 329 334 337 338 331 329 334 337 330 327 325 322 319 316 313 321 335 347 346 348 354 357
248 243 242 237 235 237 237 239 246 249 254 263 268 273 282 288 291 296 308 321 323 324 331 337 339 336 331 327 326 328 334 338 337 337 342 343 354 360 1 357 355 358 360
Height
1475 1475 1476 1477 1477 1477 1478 1478 1478 1478 1478 1478 1478 1478 1477 1477 1477 1476 1476 1475 1475 1474 1473 1473 1472 1471 1470 1469 1469 1468 1466 1465 1463 1461 1461 1460 1459 1458 1457 1457 1456 1455 1455
1473 1474 1474 1475 1475 1475 1475 1476 1476 1476 1476 1476 1476 1475 1475 1474 1474 1474 1473 1472 1472 1471 1470 1470 1469 1468 1467 1466 1464 1463 1462 1461 1459 1457 1456 1455 1455 1454 1453 1452 1452 1451 1451
1472 1472 1472 1473 1473 1473 1474 1474 1474 1473 1473 1473 1473 1473 1472 1472 1471 1471 1471 1470 1469 1468 1467 1466 1465 1464 1463 1462 1460 1459 1458 1457 1455 1453 1452 1451 1450 1450 1449 1448 1447 1446 1446
1471 1471 1471 1472 1472 1472 1472 1472 1472 1471 1471 1471 1471 1470 1470 1469 1469 1468 1468 1467 1466 1465 1464 1463 1462 1461 1460 1458 1457 1455 1453 1452 1451 1450 1448 1447 1446 1445 1444 1443 1442 1442 1441
1470 1470 1470 1470 1470 1470 1470 1470 1470 1470 1470 1469 1469 1468 1468 1467 1467 1466 1465 1464 1463 1462 1461 1460 1459 1457 1456 1454 1453 1451 1450 1448 1447 1445 1444 1443 1442 1441 1440 1439 1438 1437 1436
1470 1470 1470 1469 1469 1469 1469 1469 1468 1468 1468 1468 1468 1467 1466 1466 1465 1464 1463 1462 1461 1459 1458 1457 1455 1454 1452 1451 1449 1448 1446 1444 1443 1441 1440 1439 1437 1437 1436 1435 1434 1432 1431
1470 1470 1469 1469 1469 1469 1469 1469 1468 1468 1467 1467 1467 1466 1465 1464 1464 1462 1461 1459 1458 1456 1454 1453 1451 1450 1448 1447 1445 1444 1442 1441 1439 1438 1436 1434 1433 1432 1432 1430 1430 1429 1428
1469 1470 1469 1469 1469 1469 1469 1469 1469 1468 1468 1467 1466 1465 1464 1463 1462 1460 1459 1457 1455 1453 1452 1450 1448 1446 1445 1443 1441 1439 1438 1436 1435 1433 1432 1430 1429 1428 1427 1427 1425 1424 1424
1470 1470 1469 1469 1469 1469 1469 1469 1469 1468 1467 1467 1466 1464 1463 1462 1461 1459 1457 1455 1453 1451 1449 1447 1445 1443 1441 1439 1437 1435 1434 1432 1431 1429 1428 1426 1425 1424 1423 1422 1421 1420 1419
1470 1470 1470 1469 1469 1469 1469 1469 1469 1468 1467 1466 1465 1464 1463 1461 1459 1458 1455 1453 1451 1449 1447 1445 1443 1441 1439 1437 1435 1432 1430 1429 1428 1426 1425 1423 1422 1421 1420 1419 1418 1417 1416
1470 1470 1469 1469 1469 1469 1469 1469 1468 1468 1467 1466 1464 1463 1462 1460 1458 1457 1454 1452 1450 1447 1445 1443 1440 1438 1436 1434 1432 1430 1428 1427 1425 1423 1421 1420 1419 1418 1416 1416 1415 1414 1413
1469 1469 1469 1468 1469 1469 1468 1468 1468 1467 1466 1465 1464 1463 1461 1460 1458 1456 1454 1451 1449 1446 1444 1441 1439 1437 1434 1432 1430 1428 1426 1424 1422 1421 1419 1417 1416 1414 1413 1412 1412 1411 1411
1469 1468 1468 1468 1468 1468 1468 1468 1467 1467 1466 1465 1463 1462 1460 1459 1457 1455 1453 1451 1448 1446 1444 1441 1438 1436 1433 1430 1428 1426 1423 1422 1420 1418 1416 1414 1413 1411 1410 1409 1408 1408 1407
1468 1468 1468 1468 1467 1467 1467 1467 1467 1466 1465 1464 1463 1461 1459 1458 1456 1454 1452 1450 1448 1445 1442 1440 1438 1435 1432 1429 1427 1424 1422 1420 1418 1416 1414 1412 1410 1409 1408 1406 1405 1404 1404
1468 1468 1468 1467 1467 1467 1467 1466 1465 1465 1464 1463 1462 1460 1458 1456 1455 1453 1451 1448 1446 1444 1442 1439 1436 1433 1430 1428 1425 1423 1421 1419 1416 1414 1412 1410 1408 1406 1405 1404 1403 1402 1401
1468 1468 1467 1467 1466 1466 1465 1465 1464 1463 1463 1462 1460 1459 1457 1456 1454 1452 1450 1447 1445 1443 1440 1437 1435 1432 1429 1427 1424 1422 1420 1417 1415 1412 1410 1408 1406 1404 1403 1402 1401 1400 1399
1467 1467 1466 1466 1465 1465 1464 1463 1462 1462 1461 1460 1459 1457 1456 1454 1452 1450 1448 1446 1444 1441 1438 1436 1433 1430 1428 1426 1423 1421 1418 1416 1414 1411 1409 1406 1404 1403 1401 1400 1399 1398 1397
1466 1466 1466 1465 1464 1464 1463 1462 1461 1460 1459 1457 1456 1455 1454 1452 1450 1448 1446 1444 1441 1439 1437 1434 1432 1429 1427 1424 1422 1420 1417 1415 1413 1410 1408 1405 1403 1402 1400 1399 1397 1396 1395
1465 1465 1464 1464 1463 1462 1461 1461 1459 1458 1457 1455 1454 1453 1451 1450 1448 1446 1443 1441 1439 1437 1435 1432 1430 1428 1425 1423 1421 1418 1416 1413 1411 1409 1407 1404 1402 1400 1399 1397 1396 1395 1393
1463 1463 1463 1462 1461 1461 1460 1459 1458 1456 1455 1454 1452 1451 1449 1448 1445 1444 1442 1440 1437 1435 1433 1430 1428 1426 1424 1421 1419 1417 1414 1412 1410 1408 1405 1403 1401 1400 1398 1396 1395 1393 1392
1461 1461 1460 1460 1459 1458 1458 1456 1456 1454 1453 1452 1451 1449 1448 1445 1443 1441 1439 1438 1436 1433 1431 1429 1427 1424 1422 1419 1417 1415 1412 1410 1408 1406 1404 1402 1400 1399 1397 1395 1394 1392 1390
1459 1458 1458 1457 1457 1456 1455 1454 1453 1452 1451 1450 1448 1447 1445 1443 1441 1439 1438 1436 1434 1432 1430 1427 1425 1423 1420 1418 1415 1413 1411 1408 1406 1404 1402 1401 1399 1398 1396 1394 1393 1391 1389
1456 1456 1455 1455 1454 1453 1453 1452 1451 1450 1449 1448 1446 1445 1443 1441 1439 1437 1436 1434 1432 1430 1428 1426 1423 1421 1419 1416 1414 1412 1409 1407 1405 1403 1401 1400 1398 1396 1395 1393 1392 1390 1389
1453 1453 1452 1451 1451 1450 1450 1449 1448 1448 1447 1445 1444 1443 1441 1439 1438 1436 1434 1432 1431 1429 1426 1424 1422 1420 1417 1415 1413 1411 1408 1406 1404 1402 1400 1399 1397 1395 1394 1392 1391 1390 1388
1450 1450 1449 1449 1448 1448 1447 1446 1446 1445 1444 1443 1442 1440 1439 1438 1436 1434 1433 1431 1429 1427 1425 1423 1421 1418 1416 1414 1412 1410 1408 1405 1403 1401 1399 1397 1396 1395 1393 1392 1390 1389 1387
1447 1446 1446 1446 1445 1444 1444 1443 1443 1442 1442 1441 1439 1438 1437 1436 1434 1433 1431 1429 1427 1425 1423 1421 1419 1417 1415 1413 1411 1409 1407 1404 1402 1400 1398 1396 1395 1394 1393 1391 1390 1388 1387